Weather History for Siemreap, Cambodia

Change the Weather History Date:

Thursday, October 11, 2012

  Actual Average Record
Temperature  
Mean Temperature 82 °F -  
Max Temperature 87 °F - - ()
Min Temperature 78 °F - - ()
Cooling Degree Days 18    
Growing Degree Days 32 (Base 50)    
Moisture  
Dew Point 75 °F    
Average Humidity 72    
Maximum Humidity 89    
Minimum Humidity 58    
Precipitation  
Precipitation 0.00 in - - ()
Sea Level Pressure  
Sea Level Pressure 29.82 in    
Wind  
Wind Speed 5 mph ()    
Max Wind Speed 13 mph    
Max Gust Speed -    
Visibility 5.5 miles    
Events      
T = Trace of Precipitation, MM = Missing Value Source: Averaged Metar Reports

Daily Weather History Graph

Daily Weather History Graph

Search for Another Location

Airport:

Trip Planner

Search our weather history database for the weather conditions in past years. The results will help you decide how hot, cold, wet, or windy it might be!

Date:

Astronomy

Oct. 11, 2012 Rise Set
Actual Time 5:54 AM ICT 5:47 PM ICT
Civil Twilight 5:33 AM ICT 6:09 PM ICT
Nautical Twilight 5:08 AM ICT 6:33 PM ICT
Astronomical Twilight 4:43 AM ICT 6:58 PM ICT
Moon 1:44 AM ICT (10/11) 2:27 PM ICT (10/11)
Length of Visible Light 12h 35m
Length of Day
11h 53m
Waning Crescent, 22% of the Moon is Illuminated
Oct 11
Waning Crescent
Oct 15
New
Oct 22
First Quarter
Oct 30
Full
Nov 7
Last Quarter

Hourly Weather History & Observations

Time (ICT) Temp. Heat Index Dew Point Humidity Pressure Visibility Wind Dir Wind Speed Gust Speed Precip Events Conditions
7:00 AM 78.8 °F - 75.2 °F 89% 29.83 in 5.6 mi ENE 4.6 mph - N/A   Unknown
7:30 AM 80.6 °F 86.2 °F 75.2 °F 84% 29.86 in 5.6 mi ENE 4.6 mph - N/A   Unknown
8:00 AM 82.4 °F 89.5 °F 75.2 °F 79% 29.86 in - ENE 4.6 mph - N/A   Clear
8:30 AM 82.4 °F 89.5 °F 75.2 °F 79% 29.86 in - ESE 8.1 mph - N/A   Clear
9:00 AM 84.2 °F 92.3 °F 75.2 °F 74% 29.89 in - ESE 5.8 mph - N/A   Clear
9:30 AM 86.0 °F 95.1 °F 75.2 °F 70% 29.89 in 6.2 mi ESE 3.5 mph - N/A   Partly Cloudy
10:00 AM 86.0 °F 95.1 °F 75.2 °F 70% 29.89 in 6.2 mi East 5.8 mph - N/A   Partly Cloudy
10:30 AM 87.8 °F 97.6 °F 75.2 °F 66% 29.86 in 6.2 mi South 5.8 mph - N/A   Scattered Clouds
11:00 AM 86.0 °F 93.4 °F 73.4 °F 66% 29.86 in 6.2 mi South 5.8 mph - N/A   Scattered Clouds
11:30 AM 87.8 °F 93.8 °F 71.6 °F 58% 29.86 in 6.2 mi SSE 5.8 mph - N/A   Scattered Clouds
12:00 PM 87.8 °F 95.6 °F 73.4 °F 62% 29.83 in 6.2 mi SSW 5.8 mph - N/A   Scattered Clouds
12:30 PM 87.8 °F 97.6 °F 75.2 °F 66% 29.83 in 6.2 mi South 5.8 mph - N/A   Scattered Clouds
1:00 PM 87.8 °F 97.6 °F 75.2 °F 66% 29.80 in 6.2 mi SW 9.2 mph - N/A   Scattered Clouds
1:30 PM 87.8 °F 95.6 °F 73.4 °F 62% 29.80 in 6.2 mi SW 9.2 mph - N/A   Scattered Clouds
2:00 PM 87.8 °F 97.6 °F 75.2 °F 66% 29.77 in 6.2 mi South 9.2 mph - N/A   Scattered Clouds
2:30 PM 82.4 °F 88.2 °F 73.4 °F 74% 29.80 in 6.2 mi NNW 12.7 mph - N/A   Scattered Clouds
3:00 PM 84.2 °F 90.9 °F 73.4 °F 70% 29.77 in 6.2 mi West 4.6 mph - N/A   Partly Cloudy
3:30 PM 86.0 °F 93.4 °F 73.4 °F 66% 29.77 in 6.2 mi West 4.6 mph - N/A   Partly Cloudy
4:00 PM 86.0 °F 93.4 °F 73.4 °F 66% 29.74 in 6.2 mi SW 4.6 mph - N/A   Partly Cloudy
4:30 PM 86.0 °F 93.4 °F 73.4 °F 66% 29.74 in 6.2 mi WSW 4.6 mph - N/A   Partly Cloudy
5:00 PM 86.0 °F 93.4 °F 73.4 °F 66% 29.74 in 6.2 mi WSW 4.6 mph - N/A   Partly Cloudy
5:30 PM 84.2 °F 90.9 °F 73.4 °F 70% 29.77 in 6.2 mi WSW 4.6 mph - N/A   Partly Cloudy
7:30 PM 82.4 °F 89.5 °F 75.2 °F 79% 29.80 in 4.3 mi Calm Calm - N/A   Partly Cloudy
8:00 PM 84.2 °F 92.3 °F 75.2 °F 74% 29.80 in 3.1 mi Calm Calm - N/A   Mist
8:30 PM 82.4 °F 89.5 °F 75.2 °F 79% 29.80 in 3.1 mi Calm Calm - N/A   Mist
9:00 PM 82.4 °F 90.9 °F 77.0 °F 84% 29.83 in 3.7 mi Variable 2.3 mph - N/A   Mist
9:30 PM 82.4 °F 90.9 °F 77.0 °F 84% 29.83 in 3.7 mi Calm Calm - N/A   Mist
10:30 PM 80.6 °F 86.2 °F 75.2 °F 84% 29.83 in 3.7 mi Calm Calm - N/A   Mist